Location: Monroe
(41.3286°N, 74.1872°W)
Time: 03:41:50
(UTC+00:00)

ARIANE 6 FM1 Upper Stage - Pass Details

Date: 18 January 2026
Orbit: 522 x 609 km, 62.0° (Epoch: 10 February)

Event Time Altitude Azimuth Distance (km) Brightness Sun altitude
Exits shadow 10:05:36 14° 180° (S) 1,557 5.0 -24.7°
Drops below altitude 10° 10:06:15 10° 175° (S) 1,788 5.3 -24.6°
Sets 10:08:36 0° 166° (SSE) 2,689 6.4 -24.1°
